Location: Salillas
(41.9950°N, 0.2228°W)
Time: 02:51:08
(UTC+00:00)

SJ-11-01 - Pass Details

Date: 29 March 2020
Orbit: 684 x 701 km, 98.0° (Epoch: 31 May)

Event Time Altitude Azimuth Distance (km) Brightness Sun altitude
Rises 18:57:23 0° 155° (SSE) 3,042 7.2 -7.0°
Reaches altitude 10° 18:59:38 10° 151° (SSE) 2,133 6.4 -7.4°
Maximum altitude 19:04:13 57° 73° (ENE) 813 4.4 -8.3°
Drops below altitude 10° 19:08:51 10° 355° (N) 2,160 7.1 -9.1°
Sets 19:11:08 0° 352° (N) 3,084 7.9 -9.5°
